Weather History for Kalamazoo, MI

Change the Weather History Date:

Monday, October 7, 2013

  Actual Average Record
Temperature  
Mean Temperature 52 °F 54 °F  
Max Temperature 61 °F 64 °F 86 °F (1963)
Min Temperature 43 °F 44 °F 28 °F (2001)
Degree Days  
Heating Degree Days 13 12  
Month to date heating degree days 21 75  
Since 1 July heating degree days 177 224  
Cooling Degree Days 0 1  
Month to date cooling degree days 16 7  
Year to date cooling degree days 725 674  
Growing Degree Days 2 (Base 50)    
Moisture  
Dew Point 43 °F    
Average Humidity 72    
Maximum Humidity 93    
Minimum Humidity 51    
Precipitation  
Precipitation 0.15 in 0.10 in 1.91 in (1951)
Month to date precipitation 1.09 0.78  
Year to date precipitation 31.91 28.19  
Sea Level Pressure  
Sea Level Pressure 29.90 in    
Wind  
Wind Speed 9 mph (WSW)    
Max Wind Speed 21 mph    
Max Gust Speed 25 mph    
Visibility 9 miles    
Events Rain    
T = Trace of Precipitation, MM = Missing Value Source: NWS Daily Summary

Daily Weather History Graph

Daily Weather History Graph

Search for Another Location

Airport:

Trip Planner

Search our weather history database for the weather conditions in past years. The results will help you decide how hot, cold, wet, or windy it might be!

Date:

Astronomy

Oct. 07, 2013 Rise Set
Actual Time 7:46 AM EDT 7:13 PM EDT
Civil Twilight 7:18 AM EDT 7:41 PM EDT
Nautical Twilight 6:45 AM EDT 8:13 PM EDT
Astronomical Twilight 6:13 AM EDT 8:45 PM EDT
Moon 10:38 AM EDT (10/7) 8:53 PM EDT (10/7)
Length of Visible Light 12h 22m
Length of Day
11h 26m
Waxing Crescent, 8% of the Moon is Illuminated
Oct 7
Waxing Crescent
Oct 11
First Quarter
Oct 18
Full
Oct 26
Last Quarter
Nov 3
New

Hourly Weather History & Observations

Time (EDT) Temp. Windchill Dew Point Humidity Pressure Visibility Wind Dir Wind Speed Gust Speed Precip Events Conditions
12:53 AM 51.1 °F - 43.0 °F 74% 29.75 in 10.0 mi SW 8.1 mph - N/A   Overcast
1:53 AM 48.0 °F - 39.9 °F 74% 29.75 in 10.0 mi SW 8.1 mph - N/A   Partly Cloudy
2:53 AM 45.0 °F 39.7 °F 39.0 °F 80% 29.75 in 10.0 mi SSW 10.4 mph - N/A   Clear
3:53 AM 46.0 °F 41.4 °F 39.9 °F 79% 29.75 in 10.0 mi SW 9.2 mph - N/A   Overcast
4:53 AM 46.0 °F 42.5 °F 39.9 °F 79% 29.75 in 10.0 mi SW 6.9 mph - N/A   Mostly Cloudy
5:53 AM 45.0 °F 39.7 °F 39.9 °F 82% 29.75 in 10.0 mi SSW 10.4 mph - N/A   Clear
6:53 AM 44.1 °F 38.6 °F 39.9 °F 85% 29.77 in 10.0 mi South 10.4 mph - N/A   Clear
7:53 AM 45.0 °F 39.7 °F 41.0 °F 86% 29.79 in 10.0 mi SSW 10.4 mph - 0.00 in Rain Light Rain
8:53 AM 46.0 °F 40.6 °F 43.0 °F 89% 29.81 in 7.0 mi SW 11.5 mph - 0.05 in   Overcast
9:53 AM 48.0 °F - 44.1 °F 86% 29.83 in 10.0 mi SW 11.5 mph - 0.02 in   Mostly Cloudy
10:53 AM 51.1 °F - 46.0 °F 83% 29.83 in 10.0 mi SW 11.5 mph - N/A   Mostly Cloudy
11:53 AM 50.0 °F - 46.9 °F 89% 29.86 in 3.0 mi SW 12.7 mph - 0.00 in Rain Light Rain
12:53 PM 50.0 °F - 48.0 °F 93% 29.88 in 2.0 mi SW 12.7 mph 21.9 mph 0.03 in Rain Light Rain
1:35 PM 51.8 °F - 48.2 °F 88% 29.89 in 9.0 mi WSW 11.5 mph - 0.05 in Rain Light Rain
1:53 PM 53.1 °F - 50.0 °F 89% 29.90 in 10.0 mi WSW 9.2 mph - 0.05 in   Overcast
2:53 PM 57.0 °F - 46.0 °F 67% 29.92 in 10.0 mi WNW 16.1 mph - N/A   Scattered Clouds
3:53 PM 57.9 °F - 43.0 °F 58% 29.95 in 10.0 mi WNW 15.0 mph 23.0 mph N/A   Scattered Clouds
4:53 PM 60.1 °F - 43.0 °F 53% 29.97 in 10.0 mi WNW 15.0 mph 20.7 mph N/A   Scattered Clouds
5:53 PM 59.0 °F - 44.1 °F 58% 29.99 in 10.0 mi WNW 10.4 mph - N/A   Partly Cloudy
6:53 PM 55.9 °F - 44.1 °F 64% 30.03 in 10.0 mi West 5.8 mph - N/A   Partly Cloudy
7:53 PM 50.0 °F - 44.1 °F 80% 30.05 in 10.0 mi WSW 3.5 mph - N/A   Clear
8:53 PM 50.0 °F - 44.1 °F 80% 30.07 in 10.0 mi Calm Calm - N/A   Clear
9:53 PM 45.0 °F 43.5 °F 43.0 °F 93% 30.11 in 10.0 mi South 3.5 mph - N/A   Clear
10:53 PM 44.1 °F - 42.1 °F 93% 30.12 in 9.0 mi Calm Calm - N/A   Clear
11:53 PM 45.0 °F - 43.0 °F 93% 30.14 in 10.0 mi Calm Calm - N/A   Clear